SL-16 DEB, 39715

Orbit data source: Space-Track

SL-16 DEB, 39715 is space debris in LEO originally from a launch on Fri, 25 Dec 1992 UTC launched from the Tyuratam Missile And Space Complex (TTMTR). Debris objects in space refer to the collection of defunct objects orbiting the Earth. Examples of debris include non-operational satellites, rocket bodies, and fragments generated from explosions, collisions, or faulty payload assembly.

Loading next visibility...
Identifier
39715, 1992-093KF
Orbit
LEO
Country
Flag of CISCIS
Related business
Manufacturer
Unknown
Mission
Spacecraft
Bus & Motor
Unknown
Mass
Unknown
Launch date (UTC)
1992-12-25 (33 years ago)
Launch vehicle
Unknown
Launch site
Tyuratam Missile And Space Complex (TTMTR)
Object type
Payload
Rocket body
Debris
Shape & HBR
Unknown shape, 0.1 m
Radar Cross Section
Small (<0.1 m²)

Expand to show TLE details & history
Last TLE update: 9 hours ago

TLE from 9 hours ago
0 SL-16 DEB
1 39715U 92093KF  26127.02974751  .00000893  00000-0  34537-3 0  9996
2 39715  71.0118 249.0280 0002771 138.5161 221.6182 14.32828884628626
Epoch: 2026-05-07T00:42Z
TLE epoch observation values (Epoch: 2026-05-07T00:42:50.184Z)
Latitude
-0.00003°
Longitude
13.43714°
Altitude
786.195 km
Speed
7.46 km/s
True Right ascension
16h 36m 06s
True Declination
0° 00' 00"
Sunlit
Object was in full shadow at epoch
Visualization orbit readout
Latitude
Unknown
Longitude
Unknown
Altitude
Unknown
Speed
Unknown
Apparent Right ascension
Unknown
Apparent Declination
Unknown
Sunlit
N/A
Visualization observer readout
Local Sidereal Time
17:20:39
Azimuth
Unknown
Elevation
Unknown
Doppler factor
Unknown
Orbital elements
Apogee altitude
782.18 km
Perigee altitude
778.213 km
Semi-major axis
7,158.334 km
Eccentricity
0.00028
Inclination
71.0118°
RAAN
249.028°
Arg. of periapsis
138.5161°
True anomaly
221.59712°
Mean anomaly
221.6182°
Eccentric anomaly
221.60766°
Mean motion
3.58365 °/min
Orbital period
100.46 mins
BSTAR
0.00034537
Loading maneuver chart data...
Computing Atmospheric mass density...
Loading historical data...
Loading historical data...
Loading historical data...
Loading historical data...
Loading historical data...
Loading historical data...
Loading historical data...

Documentation

Showing up to 5 results
|